Timeline UpdatesTrip UpdatesNews PostsPvt Posts♥♥Travel TipsAdmin PostsConv PostsFollowed PostsChat RequestsBlog PostsPNR Posts

Disclaimer
Search
 
 
Sun Oct 26, 2014 07:23:21 ISTHomeTrainsΣChainsAtlasPNRForumGalleryNewsFAQTripsMembersLoginFeedback
No Recent News for this Train
Other Trains in the News **new
Latest...
.
Wed Feb 26, 2014 (06:54PM)
⇐ Return Journey: Train# 15018

15017/Kashi Express

Time-Table HAS CHANGED.
Sep 04 2014 (3:45AM)
Change Departure Station:
Change Arrival Station:
Post a Train Travel TipPost a Train Travel Tip **new
Post a Comment/Question/Picture/VideoPost a Comment/Question/Picture/Video
Pantry/Catering
✕ NO Pantry Car
✓ Catering Avbl
Loco/Rake Reversals
ALD/Allahabad Junction (10);
RSA - Rake Sharing
No RSA.
Rake/Coach Composition
Loco-GEN-GEN-GEN-S1-S2-S3-S4-S5-S6-S7-S8-S9-S10-S11-S12-A1-B1-GEN-GEN-SLR; As per Shubham in # 127749.
Loco
LTT-ET :-BSL/ET WAP-4 / WAM-4 ET-GKP :-ET WDM-3A/3D.
News    PNR    Forum    Time-Table    Availability    Fare Chart    Map    Arr/Dep History    Trips    Gallery    ΣChains    X/O    Timeline    
Travel Time: 36h 35m    70 halts    Distance: 1709 km    Avg Speed: 46 km/hr
Type: Mail/Express
Zone: NER/North Eastern
Departs @ 06:35 (Avg 2m late)
Platform# 3
SMTWTFS
Mumbai Lokmanya Tilak Terminus/LTT 
Arrives @ 19:10 +1 night (Avg 25m late)
Platform# 6
SMTWTFS
Gorakhpur Junction/GKP 

70 halts. 230 intermediate Stations between Mumbai Lokmanya Tilak Terminus and Gorakhpur Junction

Show ALL intermediate Stations  Show Old Time-Table

#TrkCodeStation NameX/OArrivesAvgDepartsAvgHaltPFDay#KmSpeedElevZoneAddress
1/==/LTTMumbai Lokmanya Tilak Terminus (5)»  -06:35+2310.0417mCRMumbai - 400089, Maharashtra
2/==/TNAThane (10)X  06:59+407:00+51m7116.56710mCRThane (West) 400602, Maharashtra
3/==/KYNKalyan Junction (8)  07:18+1307:22+144m4136.76110mCRKalyan 421301, Maharashtra
4/==/KSRAKasara (4)XO  08:28+1408:30+202m11104.125290mCRDist. Thane 421602, Maharashtra
5/==/IGPIgatpuri (4)X09:05+909:10+145m21118.571589mCRIgatpuri 422403, Maharashtra
6/==/DVLDevlali (3)X  09:48+1709:50+182m11163.434561mCRDist. Nashik 422401, Maharashtra
7/==/NKNasik Road (3)  10:00+1610:05+155m21169.183563mCRNashik 422101, Maharashtra
8/==/LSLasalgaon (3)  10:43 10:40+1510:45 10:42+152m--1217.482592mCRLasalgaon, Maharashtra
9/==/MMRManmad Junction (6)X  11:05 11:00+2211:10 11:05+235m21241.985580mCRManmad 423104, Maharashtra
10/==/NGNNandgaon (3)X  11:28 11:23+2711:30 11:25+282m--1267.390476mCRNandgaon, Maharashtra
11/==/CSNChalisgaon Junction (3)X  11:58 11:53+3112:00 11:55+312m--1309.496352mCRChalisgaon 424101, Maharashtra
12/==/PCPachora Junction (4)  12:28 12:23+3612:30 12:25+382m--1354.389264mCRPachora 424201, Maharashtra
13/==/JLJalgaon Junction (4)  13:02 12:57+4413:05 13:00+453m31402.058213mCRJalgaon 425001, Maharashtra
14/==/BSLBhusaval Junction (8)X  13:40 13:25+4613:50 13:35+4910m--1426.169208mCRBhusaval 425201, Maharashtra
15/==/RVRaver (2)X  14:20 14:05+5214:22 14:07+562m--1460.476242mCRJalgaon, Maharashtra
16/==/BAUBurhanpur (2)  14:38 14:23+5714:40 14:25+582m21480.668269mCRBurhanpur, Madhya Pradesh
17/==/NPNRNepanagar (2)  14:58 14:48+1:0115:00 14:50+1:032m--1506.826289mCRState Highway 27, Madhya Pradesh
18/==/KNWKhandwa Junction (5)XO  16:40 16:30+1216:45 16:35+145m11549.541310mCRKhandwa, Madhya Pradesh
19/==/TLVTalvadiya (2)X  16:58+1317:00+162m--1565.271308mWCRKhandwa, Madhya Pradesh
20/==/SGBJSurgaon Banjari (2)X  17:10+1717:12+202m--1577.077298mWCRKhandwa, Madhya Pradesh
21/==/CAERChhanera (2)  17:26+2617:28+282m--1594.961283mWCRChhanera, Madhya Pradesh
22/==/BRUDBarud (2)  17:38+2817:40+322m--1605.095273mWCRKhandwa, Madhya Pradesh
23/==/KKNKhirkiya (2)  17:53+3817:55+1:042m21625.6105281mWCRSH 15, Madhya Pradesh
24/==/HDHarda (3)XO  18:13+1:1318:15+1:122m--1657.156289mWCRHarda, Madhya Pradesh
25/==/TBNTimarni (2)X  18:30+1:1218:32+1:172m--1671.250308mWCRTimarni, Madhya Pradesh
26/==/BPFBanapura (2)XO  19:06+1:0619:08+1:102m--1699.416314mWCRBanapura, Madhya Pradesh
27/==/ETItarsi Junction (7)X21:10+621:20+1310m11732.974329mWCRItarsi 461111, Madhya Pradesh
28|==|SGPSohagpur (2)X  22:00+3422:02+362m--1782.476340mWCRSohagpur, Madhya Pradesh
29|==|PPIPipariya (3)X  22:16+3822:18+392m11800.199338mWCRPiparia, Madhya Pradesh
30|==|GARGadarwara (2)X  22:48+4722:50+472m11849.568352mWCRNarsinghpur, Madhya Pradesh
31|==|KYKareli (2)  23:15+4423:17+442m11878.086361mWCRKareli, Madhya Pradesh
32|==|NUNarsinghpur (2)X  23:28+4823:30+482m11893.860365mWCRNarsimhapur, Madhya Pradesh
33|==|SRIDShridham (3)X  00:01+3900:03+392m22925.076373mWCRShridham, Madhya Pradesh
34|==|MMLMadan Mahal (3)  00:42+3700:44+382m22974.618428mWCRJabalpur, Madhya Pradesh
35|==|JBPJabalpur Junction (4)X  00:55+3401:05+3710m32977.959416mWCRJabalpur, Madhya Pradesh
36|==|SHRSihora Road (2)XO  01:36 01:44+3801:38 01:46+382m--21016.5-388mWCRJabalpur, Madhya Pradesh
37|==%KTEKatni Junction (6)X  02:20 02:00+5502:25+415 25m--21068.767387mWCRKatni, Madhya Pradesh
38%==%MYRMaihar (3)X  03:21+3803:23+382m121131.779353mWCRMaihar Railway Station, Madhya Pradesh
39%==%STASatna Junction (3)X  03:55 03:50+3804:05 04:00+3810m--21167.171322mWCRSatna, Madhya Pradesh
40%==%JTWJaitwar (2)X  04:22 04:17+3904:24 04:19+382m--21187.238321mWCRJaitwar, Madhya Pradesh
41%==%MKPManikpur Junction (4)X  05:50+905:55+135m221244.875250mNCRManikpur, Uttar Pradesh
42%==%DBRDabhaura (2)X  06:13+1406:15+142m--21267.372201mNCRDabhaura, Uttar Pradesh
43%==%SRJShankargarh (3)  06:42+1306:44+172m221299.866132mNCRShankargarh, Uttar Pradesh
44%==%JSRJasra (2)X  07:04+1907:06+192m--21321.62497mNCRJasra, Uttar Pradesh
45%==/NYNNaini Junction (4)X  07:45+1007:47+142m421337.21998mNCRAllahabad, Uttar Pradesh
46/==/ALDAllahabad Junction (10)O08:10+1808:30+1820m921344.322100mNCRAllahabad 211003, Uttar Pradesh
47%--%PRGPrayag Junction (3)XO  08:47+2708:49+322m--21350.61596mNRAllahabad, Uttar Pradesh
48%--%PFMPhaphamau Junction (3)XO  09:14+2009:15+231m--21357.05699mNRAllahabad, Uttar Pradesh
49%--%SYCSarai ChandiO  09:29+2509:30+261m--21370.15395mNR221507, Uttar Pradesh
50%--%PLPPhulpur (3)O  09:42+3109:43+311m121380.66993mNRDistrict - Allahabad 212402, Uttar Pradesh
51%--%URPRUgrasenpur (2)  09:52+3409:53+351m121391.05096mNRJanghai, Uttar Pradesh
52|--%JNHJanghai Junction (3)O  10:08+3910:10+442m121403.63092mNRUttar Pradesh 212401, Uttar Pradesh
53%==%SQNSarai Kansrai (2)XO  10:20+4410:21+501m--21408.63892mNRGopalaha Marg, Uttar Pradesh
54%==%SAWSuriawan (2)O  10:37+3810:38+411m--21418.74890mNR221404, Uttar Pradesh
55%==%MOFMondh (2)  10:47+4310:48+451m121425.94491mNRUttar Pradesh 221406, Uttar Pradesh
56%==%BOYBhadohi (2)O  10:59+4611:01+472m--21434.03890mNRUttar Pradesh 221401, Uttar Pradesh
57%==%PRFParsipur (2)O  11:14+4711:15+471m--21442.35687mNRSant Ravidas Nagar, Uttar Pradesh
58%==%KEHKapseti (2)O  11:24+4811:25+491m--21450.73585mNRState Highway 87, Uttar Pradesh
59%==%SWPRSewapuri (2)X  11:34+4911:35+511m121456.02187mNRState Highway 87, Uttar Pradesh
60/==%BSBVaranasi Junction (9)X  12:40+3513:00+3220m521478.52482mNRVaranasi 221002, Uttar Pradesh
61|--|BCYVaranasi City (3)  13:08+3513:10+392m--21481.84777mNERVaranasi, Uttar Pradesh
62|--|ARJAunrihar Junction (4)  13:43 13:51+4313:45 13:53+452m--21513.67480mNERGhazipur, Uttar Pradesh
63|--|JKNJakhanian  14:09 14:16+5514:11 14:18+562m--21542.15182mNERState Highway 67, Uttar Pradesh
64|--|DLRDullahapur  14:28+5614:30+562m--21550.63279mNERDullahapur, Uttar Pradesh
65|-=|MAUMau Junction (4)  15:05 15:10+4315:10 15:15+445m221571.63175mNERMau., Uttar Pradesh
66|=-|IAAIndara Junction (3)O  15:25 15:30+3715:27 15:32+412m--21579.44274mNERMau, Uttar Pradesh
67|--|BLTRBelthara Road (2)  16:03 16:11+3716:05 16:13+402m--21606.56170mNERBelthara, Uttar Pradesh
68|--|LRDLar Road (2)  16:13 16:26+3616:15 16:28+382m--21619.62674mNERDeoria, Uttar Pradesh
69|--|SRUSalempur Junction (2)X  16:46 16:50+2716:48 16:52+282m--21629.12771mNERSalempur, Uttar Pradesh
70|--|BTTBhatni Junction (5)XO  17:10 17:15+2017:15 17:20+265m--21639.36273mNERDeoria, Uttar Pradesh
71%==%DEOSDeoria Sadar (3)  17:33 17:40+3017:35 17:45+312 5m--21660.13579mNERDeoria- 274001, Uttar Pradesh
72%==%GKPGorakhpur Junction (10)•  19:10+25-621709.2-84mNERGorakhpur 273001, Uttar Pradesh
Scroll to Top
Scroll to Bottom